When you browse on this site, cookies collect data to enhance your experience and personalize the content and advertising you see.
Visit our Privacy Policy to learn more. By continuing to use the site, you agree to this use of cookies and data.
  • In Belgien
  • Länderverzeichnis
  • Für 7 Tage
  • Wassertemperatur
  • Satellitenkarten
  • Wetterkarte
  • Widgets
  • user-avatar
    Anmelden

    Stündliche Wetter Vyazovaya Dubrava

    Heute, 19 Juni, Mittwoch

    Zeit Temperatur Niederschläge Wind Luftdruck Luftfeuchtigkeit
    00:00 +18°C° 0.2 mm 3 m/S 742 mmHg 93%
    01:00 +18°C° 0 mm 3 m/S 742 mmHg 93%
    02:00 +17°C° 0 mm 3 m/S 742 mmHg 93%
    03:00 +17°C° 0 mm 3 m/S 742 mmHg 94%
    04:00 +17°C° 0 mm 2 m/S 742 mmHg 93%
    05:00 +18°C° 0 mm 2 m/S 742 mmHg 91%
    06:00 +18°C° 0 mm 2 m/S 743 mmHg 90%
    07:00 +19°C° 0 mm 2 m/S 743 mmHg 85%
    08:00 +21°C° 0 mm 2 m/S 743 mmHg 79%
    09:00 +24°C° 0 mm 3 m/S 743 mmHg 74%
    10:00 +25°C° 0.2 mm 3 m/S 744 mmHg 67%
    11:00 +26°C° 0.2 mm 2 m/S 744 mmHg 61%
    12:00 +27°C° 0.2 mm 2 m/S 744 mmHg 55%
    13:00 +27°C° 0 mm 2 m/S 744 mmHg 55%
    14:00 +27°C° 0 mm 2 m/S 744 mmHg 55%
    15:00 +27°C° 0 mm 2 m/S 744 mmHg 55%
    16:00 +27°C° 0.2 mm 2 m/S 744 mmHg 61%
    17:00 +26°C° 0.2 mm 2 m/S 744 mmHg 66%
    18:00 +25°C° 0.2 mm 3 m/S 744 mmHg 71%
    19:00 +24°C° 0.1 mm 2 m/S 744 mmHg 76%
    20:00 +21°C° 0.1 mm 2 m/S 744 mmHg 80%
    21:00 +20°C° 0.1 mm 2 m/S 744 mmHg 85%
    22:00 +19°C° 0 mm 2 m/S 744 mmHg 85%
    23:00 +18°C° 0 mm 2 m/S 744 mmHg 84%

    Morgen, 20 Juni, Donnerstag

    Zeit Temperatur Niederschläge Wind Luftdruck Luftfeuchtigkeit
    00:00 +18°C° 0 mm 1 m/S 744 mmHg 84%
    01:00 +18°C° 0 mm 1 m/S 744 mmHg 83%
    02:00 +16°C° 0 mm 1 m/S 745 mmHg 83%
    03:00 +15°C° 0 mm 1 m/S 745 mmHg 82%
    04:00 +16°C° 0 mm 1 m/S 745 mmHg 82%
    05:00 +18°C° 0 mm 1 m/S 745 mmHg 82%
    06:00 +18°C° 0 mm 1 m/S 745 mmHg 82%
    07:00 +20°C° 0 mm 1 m/S 745 mmHg 77%
    08:00 +21°C° 0 mm 1 m/S 745 mmHg 72%
    09:00 +23°C° 0 mm 2 m/S 745 mmHg 67%
    10:00 +24°C° 0 mm 2 m/S 746 mmHg 63%
    11:00 +25°C° 0 mm 2 m/S 746 mmHg 59%
    12:00 +26°C° 0 mm 2 m/S 746 mmHg 55%
    13:00 +27°C° 0 mm 2 m/S 746 mmHg 54%
    14:00 +27°C° 0 mm 2 m/S 745 mmHg 53%
    15:00 +28°C° 0 mm 2 m/S 745 mmHg 52%
    16:00 +27°C° 0 mm 2 m/S 745 mmHg 55%
    17:00 +27°C° 0 mm 2 m/S 745 mmHg 59%
    18:00 +27°C° 0 mm 2 m/S 745 mmHg 62%
    19:00 +25°C° 0 mm 1 m/S 745 mmHg 66%
    20:00 +23°C° 0 mm 1 m/S 745 mmHg 70%
    21:00 +21°C° 0 mm 1 m/S 745 mmHg 74%
    22:00 +21°C° 0 mm 1 m/S 745 mmHg 75%
    23:00 +20°C° 0 mm 1 m/S 745 mmHg 76%

    übermorgen, 21 Juni, Freitag

    Zeit Temperatur Niederschläge Wind Luftdruck Luftfeuchtigkeit
    00:00 +19°C° 0 mm 1 m/S 746 mmHg 76%
    01:00 +19°C° 0 mm 1 m/S 746 mmHg 79%
    02:00 +19°C° 0 mm 1 m/S 746 mmHg 81%
    03:00 +18°C° 0 mm 1 m/S 746 mmHg 83%
    04:00 +19°C° 0 mm 1 m/S 746 mmHg 83%
    05:00 +19°C° 0 mm 1 m/S 746 mmHg 83%
    06:00 +20°C° 0 mm 1 m/S 746 mmHg 84%
    07:00 +22°C° 0 mm 1 m/S 746 mmHg 78%
    08:00 +23°C° 0 mm 2 m/S 747 mmHg 73%
    09:00 +25°C° 0 mm 2 m/S 747 mmHg 67%
    10:00 +26°C° 0 mm 2 m/S 747 mmHg 64%
    11:00 +26°C° 0 mm 2 m/S 747 mmHg 60%
    12:00 +27°C° 0 mm 2 m/S 747 mmHg 57%
    13:00 +27°C° 0 mm 2 m/S 747 mmHg 56%
    14:00 +28°C° 0 mm 2 m/S 746 mmHg 54%
    15:00 +28°C° 0 mm 2 m/S 746 mmHg 53%
    16:00 +28°C° 0 mm 2 m/S 746 mmHg 56%
    17:00 +28°C° 0 mm 1 m/S 746 mmHg 59%
    18:00 +27°C° 0 mm 1 m/S 746 mmHg 62%
    19:00 +26°C° 0 mm 1 m/S 746 mmHg 65%
    20:00 +24°C° 0 mm 1 m/S 746 mmHg 67%
    21:00 +22°C° 0 mm 1 m/S 746 mmHg 70%
    22:00 +21°C° 0 mm 1 m/S 746 mmHg 72%
    23:00 +21°C° 0 mm 1 m/S 746 mmHg 73%

    22 Juni, Samstag

    Zeit Temperatur Niederschläge Wind Luftdruck Luftfeuchtigkeit
    00:00 +20°C° 0 mm 1 m/S 746 mmHg 75%
    01:00 +20°C° 0 mm 1 m/S 746 mmHg 76%
    02:00 +19°C° 0 mm 1 m/S 746 mmHg 78%
    03:00 +19°C° 0 mm 1 m/S 746 mmHg 80%
    04:00 +20°C° 0 mm 1 m/S 746 mmHg 80%
    05:00 +20°C° 0 mm 1 m/S 746 mmHg 80%
    06:00 +21°C° 0 mm 1 m/S 747 mmHg 79%
    07:00 +22°C° 0 mm 1 m/S 746 mmHg 76%
    08:00 +24°C° 0 mm 2 m/S 747 mmHg 71%
    09:00 +26°C° 0 mm 2 m/S 747 mmHg 66%
    10:00 +27°C° 0 mm 2 m/S 747 mmHg 61%
    11:00 +27°C° 0 mm 2 m/S 747 mmHg 56%
    12:00 +28°C° 0 mm 3 m/S 747 mmHg 51%
    13:00 +29°C° 0 mm 3 m/S 747 mmHg 51%
    14:00 +29°C° 0 mm 3 m/S 746 mmHg 50%
    15:00 +29°C° 0 mm 3 m/S 746 mmHg 50%
    16:00 +29°C° 0 mm 2 m/S 746 mmHg 53%
    17:00 +29°C° 0 mm 2 m/S 746 mmHg 56%
    18:00 +29°C° 0 mm 1 m/S 746 mmHg 59%
    19:00 +27°C° 0 mm 1 m/S 746 mmHg 62%
    20:00 +25°C° 0 mm 1 m/S 746 mmHg 65%
    21:00 +23°C° 0 mm 1 m/S 746 mmHg 69%
    22:00 +22°C° 0 mm 1 m/S 746 mmHg 70%
    23:00 +21°C° 0 mm 1 m/S 746 mmHg 72%

    23 Juni, Sonntag

    Zeit Temperatur Niederschläge Wind Luftdruck Luftfeuchtigkeit
    00:00 +21°C° 0 mm 1 m/S 746 mmHg 74%
    01:00 +21°C° 0 mm 1 m/S 746 mmHg 76%
    02:00 +20°C° 0 mm 1 m/S 746 mmHg 77%
    03:00 +20°C° 0 mm 1 m/S 746 mmHg 79%
    04:00 +20°C° 0 mm 1 m/S 746 mmHg 79%
    05:00 +21°C° 0 mm 1 m/S 747 mmHg 79%
    06:00 +22°C° 0 mm 1 m/S 747 mmHg 79%
    07:00 +23°C° 0 mm 1 m/S 747 mmHg 74%
    08:00 +25°C° 0 mm 1 m/S 747 mmHg 69%
    09:00 +26°C° 0 mm 2 m/S 747 mmHg 64%
    10:00 +27°C° 0 mm 2 m/S 747 mmHg 59%
    11:00 +28°C° 0 mm 2 m/S 747 mmHg 55%
    12:00 +29°C° 0 mm 2 m/S 747 mmHg 50%
    13:00 +29°C° 0 mm 2 m/S 747 mmHg 51%
    14:00 +29°C° 0 mm 2 m/S 747 mmHg 51%
    15:00 +29°C° 0 mm 2 m/S 746 mmHg 52%
    16:00 +29°C° 0 mm 2 m/S 746 mmHg 53%
    17:00 +29°C° 0 mm 1 m/S 746 mmHg 55%
    18:00 +29°C° 0 mm 1 m/S 746 mmHg 56%
    19:00 +27°C° 0 mm 1 m/S 746 mmHg 60%
    20:00 +26°C° 0 mm 1 m/S 745 mmHg 63%
    21:00 +24°C° 0 mm 2 m/S 745 mmHg 67%
    22:00 +23°C° 0 mm 2 m/S 745 mmHg 67%
    23:00 +23°C° 0 mm 2 m/S 745 mmHg 68%

    24 Juni, Montag

    Zeit Temperatur Niederschläge Wind Luftdruck Luftfeuchtigkeit
    00:00 +21°C° 0 mm 2 m/S 745 mmHg 68%
    01:00 +21°C° 0 mm 2 m/S 745 mmHg 70%
    02:00 +20°C° 0 mm 2 m/S 745 mmHg 72%
    03:00 +20°C° 0 mm 2 m/S 745 mmHg 74%
    04:00 +20°C° 0 mm 2 m/S 745 mmHg 76%
    05:00 +21°C° 0 mm 2 m/S 745 mmHg 77%
    06:00 +21°C° 0 mm 2 m/S 745 mmHg 78%
    07:00 +24°C° 0 mm 2 m/S 746 mmHg 73%
    08:00 +25°C° 0 mm 2 m/S 746 mmHg 68%
    09:00 +27°C° 0 mm 3 m/S 746 mmHg 63%
    10:00 +28°C° 0 mm 3 m/S 746 mmHg 60%
    11:00 +29°C° 0 mm 3 m/S 746 mmHg 56%
    12:00 +30°C° 0 mm 4 m/S 745 mmHg 52%
    13:00 +30°C° 0 mm 3 m/S 745 mmHg 52%
    14:00 +30°C° 0 mm 3 m/S 745 mmHg 51%
    15:00 +31°C° 0 mm 3 m/S 745 mmHg 50%
    16:00 +30°C° 0 mm 3 m/S 745 mmHg 54%
    17:00 +30°C° 0 mm 3 m/S 744 mmHg 58%
    18:00 +29°C° 0 mm 2 m/S 744 mmHg 62%
    19:00 +28°C° 0 mm 2 m/S 744 mmHg 64%
    20:00 +26°C° 0 mm 2 m/S 744 mmHg 66%
    21:00 +24°C° 0 mm 1 m/S 744 mmHg 68%
    22:00 +23°C° 0 mm 1 m/S 744 mmHg 69%
    23:00 +23°C° 0 mm 1 m/S 744 mmHg 69%
    Mehr zeigen